Simultaneous Nadir Overpasses (SNOs) Predictions

Prediction of SNOs between TERRA and METOP-C Satellite Orbit:

Table of predicted SNOs for the next 14.0 days since TLE Epoch: 7/16/2022
Index Date (TERRA) Time (TERRA) Lat,Lon (TERRA) SZA (TERRA ) Date (METOP-C) Time (METOP-C) Lat,Lon (METOP-C) SZA (METOP-C ) Distance(km) Time Diff (sec)
1 07/16/2022 11:00:27 81.16, 55.47 61.90 07/16/2022 11:00:01 81.17, 55.55 61.90 1.58 26
2 07/16/2022 11:49:53 -81.18,-136.66 118.06 07/16/2022 11:50:41 -81.19,-136.50 118.02 2.89 48
3 07/19/2022 06:34:34 81.17, 122.11 62.41 07/19/2022 06:34:22 81.18, 122.28 62.42 2.96 12
4 07/19/2022 07:24:00 -81.19, -69.99 117.55 07/19/2022 07:25:03 -81.19, -70.18 117.55 3.17 63
5 07/22/2022 01:19:16 -81.15, 20.58 117.13 07/22/2022 01:18:06 -81.15, 20.47 117.17 1.93 70
6 07/22/2022 02:08:41 81.18,-171.38 62.94 07/22/2022 02:08:44 81.18,-171.42 62.94 0.85 3
7 07/24/2022 20:53:22 -81.15, 87.01 116.56 07/24/2022 20:52:26 -81.16, 87.09 116.57 1.42 56
8 07/24/2022 21:42:47 81.18,-104.98 63.51 07/24/2022 21:43:05 81.17,-105.16 63.49 3.10 18
9 07/27/2022 16:27:28 -81.17, 153.68 115.91 07/27/2022 16:26:47 -81.16, 153.65 115.93 0.64 41



Historial Predications of SNOs between TERRA and METOP-C
